Location: La Trinit�
(48.1620°N, 3.4512°W)
Time: 09:43:53
(UTC+00:00)

Cosmos 1733 Rocket - Pass Details

Date: 08 May 2021
Orbit: 603 x 628 km, 82.5° (Epoch: 12 June)

Event Time Altitude Azimuth Distance (km) Brightness Sun altitude
Rises 23:46:51 0° 344° (NNW) 2,874 7.8 -24.3°
Reaches altitude 10° 23:49:09 10° 338° (NNW) 1,963 6.6 -24.3°
Enters shadow 23:53:09 42° 271° (W) 865 3.7 -24.4°
